TUSUR GO (RS78S)

Last updated on Wed Feb 05 2025 00:03:01 GMT+0000 (Coordinated Universal Time)

1 61782U 24199AZ 25035.55754945 .00033039 00000+0 12039-2 0 9992 2 61782 97.3739 265.0969 0015272 281.8711 78.0815 15.28007365 57813
UTC large
Height (km)
Speed (km/s)
/
Latitude / Longitude
Inclination (degrees)
Orbital Period (minutes)
Azimuth
Elevation
Range (km)
Doppler Factor

Next 0 passes for location: London (51.5072 / 0.1276)

Sorry there are no passes over London.